SCP
-0 -0 0 0 0 0 -0 -0 0 0 0 0 0 0 0 0 -0 -0 -0 -0 -0 -0 -0 -0 -0 -0 -0 -0 -0 -0 -0 -0
0 0 0 0 0 -0 -0 0 0 0 0 0 0 0 0 -0 -0 -0 -0 -0 -1 -0 -0 -0 -0 -0 -0 -0 -0 -0 -0 -0
-0 0 0 0 0 0 -0 0 -0 0 0 0 0 0 0 -0 -0 -0 -0 -0 -0 -0 -0 -0 -0 -0 -0 -0 -0 -0 -0 -0
0 0 -0 -0 0 -0 -0 0 -0 0 0 0 1 1 1 0 -0 -0 -0 -0 -0 -0 -0 -0 -0 -0 -0 -0 -0 -0 -0 -0
-0 -0 -0 -0 0 0 0 0 0 -0 0 0 0 0 1 0 0 -0 -0 -0 -0 -0 -0 -0 -0 -0 -0 -0 -0 -0 -0 -0
-0 -0 -0 0 0 -0 -0 0 -0 -0 0 0 0 0 1 0 0 0 -0 -0 -0 -0 -0 -0 -0 -0 -0 -0 -0 -0 -0 -0
-0 -0 -0 0 0 -0 -0 -0 -0 -0 -0 0 0 -0 0 0 0 0 -0 -0 -0 -0 -0 -0 -0 -0 -0 -0 -0 -0 -0 -0
-0 -0 -0 0 0 -0 -0 0 0 0 0 0 0 -0 -0 0 0 -0 -0 -0 -0 -0 -0 -0 0 -0 -0 -0 -0 -0 -0 -0
0 0 -0 -0 0 -0 -0 -0 0 -0 0 0 0 -0 -0 -0 -0 -0 -0 -0 -0 -0 0 0 0 0 -0 -0 -0 -0 -0 -0
0 0 -0 -0 -0 0 0 -0 -0 -0 -0 0 0 -0 -0 -0 -0 -0 -0 -0 -0 -0 -0 -0 0 0 0 0 -0 -0 -0 -0
0 0 0 -0 -0 -0 -0 -0 0 -0 0 0 0 -0 -0 -0 -0 -0 -0 -0 -0 -0 -0 -0 -0 0 0 0 -0 0 -0 -0
-0 -0 -0 -0 0 -0 0 -0 -0 0 0 -0 0 -0 -0 -0 -0 -0 -0 -0 -0 -0 -0 -0 -0 -0 -0 -0 0 0 0 -0
0 -0 0 -0 0 0 -0 0 -0 -0 0 -0 -0 -0 -0 -0 -0 -0 -0 -0 -0 -0 -0 -0 -0 -0 -0 -0 -0 -0 0 0
0 0 0 -0 0 0 0 0 0 0 0 -0 -0 -0 -0 -0 -0 -0 -0 -1 -0 -0 -0 -0 -0 -0 -0 -0 0 0 0 0
0 0 0 0 0 0 0 0 0 0 0 0 0 -0 -0 -0 -0 -0 -0 -0 -0 -0 -0 -0 -0 0 0 0 0 0 0 0
0 0 0 0 0 0 0 0 0 0 -0 0 -0 -0 0 -0 0 0 0 0 0 -0 -0 0 0 0 0 0 0 0 0 0
0 0 0 0 0 0 0 0 0 0 0 0 -0 -0 0 0 -0 -0 -0 0 0 -0 0 0 0 0 1 0 0 1 1 1
0 0 0 0 0 0 0 0 -0 -0 0 0 0 0 -0 0 0 0 0 -0 0 -0 0 1 1 1 2 -0 -0 0 1 1
0 0 0 0 -0 -0 -0 -0 -0 -0 -0 -0 -1 -0 -0 -0 0 0 -0 -0 -0 0 1 1 1 2 2 3 3 1 1 1
0 0 -0 0 -0 -0 -0 -0 -0 -0 -0 -0 -1 -1 -1 0 0 0 0 -0 -0 0 0 1 1 0 1 3 4 3 3 4
Wind_Speed_500mb
12 7 16 12 17 21 14 8 14 9 6 13 8 4 3 8 29 44 46 47 51 50 46 42 38 35 32 31 30 29 28 27
19 7 19 12 19 19 12 6 9 11 14 3 3 2 3 14 34 43 44 44 48 49 44 40 38 34 32 30 28 29 29 28
11 2 3 9 22 20 20 8 6 5 7 6 2 6 10 21 35 41 43 42 47 48 43 38 35 34 33 30 29 29 29 28
17 10 4 8 20 29 24 6 6 6 8 4 5 10 15 24 31 35 40 41 45 48 44 38 34 34 33 31 30 28 29 29
9 11 9 9 25 25 25 18 6 8 14 6 8 15 20 25 28 32 36 40 40 49 46 40 36 35 35 33 30 28 29 28
18 13 8 8 24 21 23 15 6 6 7 6 12 23 23 26 25 28 35 39 37 42 45 44 40 38 38 36 34 31 30 30
23 14 8 11 25 24 22 19 13 13 13 2 19 27 26 28 26 29 34 39 37 39 39 38 34 37 41 41 38 35 33 32
10 16 21 27 26 30 23 16 15 9 9 11 19 26 28 31 31 34 37 39 38 39 39 37 36 33 42 39 40 39 36 33
17 18 24 28 28 17 26 23 7 19 8 18 23 27 27 28 28 34 36 38 41 41 41 39 37 34 31 34 33 34 39 35
14 10 20 24 27 28 30 34 28 22 18 18 26 28 27 30 30 34 37 39 39 41 42 42 37 36 34 34 34 33 32 40
18 23 25 24 28 26 37 33 34 34 21 22 27 29 28 29 28 33 36 37 39 41 43 45 52 37 37 36 36 34 34 34
21 18 16 16 23 8 20 26 30 29 30 27 30 30 29 33 34 37 37 40 40 40 44 46 46 48 38 38 38 38 36 36
12 2 1 18 21 6 28 23 18 15 21 23 24 26 34 33 39 40 41 42 44 45 44 46 47 47 47 40 38 40 39 42
18 10 5 16 5 22 23 20 12 12 17 18 18 27 34 37 38 42 44 48 50 46 48 52 49 48 47 47 48 42 41 41
10 10 9 6 18 20 18 14 11 12 12 16 21 29 34 39 43 46 49 50 51 53 55 53 52 55 53 48 50 46 43 44
3 13 17 8 12 18 16 12 13 17 19 19 22 29 20 33 42 48 50 53 53 52 56 55 45 51 54 53 55 55 56 54
4 8 18 13 10 19 21 21 23 22 22 27 34 38 34 34 34 47 51 52 52 54 51 54 55 58 59 47 54 57 58 58
11 6 15 12 13 25 26 32 36 37 37 34 30 30 28 27 28 37 43 45 51 58 57 64 67 63 49 67 50 48 33 52
15 19 5 11 20 16 15 33 40 43 43 44 39 36 37 34 18 19 26 29 39 46 57 61 60 53 54 63 66 47 31 31
12 16 10 14 14 22 20 32 36 47 50 52 51 48 49 45 42 24 7 10 17 24 34 46 52 46 33 37 37 32 24 21
Wind_Direction_500mb
303 272 32 43 24 4 348 300 229 273 278 317 2 345 131 176 165 162 170 171 179 176 177 177 180 182 184 186 186 187 189 189
259 52 84 32 7 356 356 154 236 282 277 230 263 329 138 161 161 167 169 172 182 180 180 182 185 189 193 194 193 193 194 193
244 143 23 13 5 345 353 331 289 264 342 292 307 192 142 155 161 169 172 177 185 184 184 187 191 196 199 200 201 201 199 199
218 146 10 10 4 342 349 17 355 249 311 4 155 141 144 155 162 171 177 179 185 187 190 193 197 203 206 207 208 207 206 207
294 275 274 0 344 338 336 334 37 324 294 66 169 162 146 157 165 176 182 180 188 192 194 197 202 208 212 214 215 215 214 214
229 248 263 354 325 347 335 342 335 278 326 81 165 160 153 163 172 179 187 187 193 191 199 202 207 209 214 218 219 220 220 220
237 247 272 328 332 339 326 296 293 280 306 250 165 160 164 166 176 183 189 194 196 198 203 203 208 218 216 219 222 224 225 224
346 294 289 315 319 322 316 303 294 239 222 174 175 175 182 180 184 191 196 197 200 201 203 205 207 214 221 222 225 227 229 230
273 263 290 302 300 308 294 288 333 317 323 199 196 198 197 194 196 195 194 196 200 205 207 207 213 215 216 217 223 227 228 227
292 282 287 288 306 290 286 283 300 295 290 218 210 209 205 202 200 197 199 200 202 206 208 211 215 220 220 219 223 224 230 235
272 281 285 285 268 277 281 286 276 269 261 232 222 216 211 202 206 203 203 204 206 207 213 217 219 218 222 225 230 230 231 235
279 280 269 285 304 255 336 317 290 261 253 250 241 224 208 201 207 209 210 211 211 212 218 222 226 224 225 229 232 234 234 236
194 211 248 309 220 331 342 326 288 253 255 262 249 229 219 215 209 211 215 212 215 217 220 231 232 235 236 234 239 239 241 240
104 355 71 307 354 21 346 337 298 278 279 271 252 236 231 223 222 217 213 222 222 218 220 233 235 240 243 246 246 243 243 242
153 57 327 320 356 11 349 336 320 311 301 264 256 251 239 233 228 226 224 217 224 227 225 228 236 238 243 242 247 245 245 245
348 25 329 309 348 32 357 323 308 314 311 297 280 270 277 259 241 235 232 232 226 229 233 232 232 241 241 250 252 254 252 246
11 37 309 17 320 36 36 33 26 6 343 319 305 305 298 277 255 241 231 234 234 234 231 236 237 247 252 258 252 249 253 254
256 24 298 4 76 79 59 58 52 35 25 8 349 349 336 314 269 243 241 236 241 247 246 250 248 249 246 276 280 265 294 271
345 317 221 278 103 78 73 60 33 29 25 24 22 17 17 11 339 253 245 248 243 252 258 256 253 251 246 232 255 279 304 297
322 302 83 308 116 77 33 38 34 28 25 22 24 28 30 28 29 24 341 272 262 254 246 255 259 254 260 245 251 267 289 291
Wind_Speed_850mb
12 7 16 12 17 21 14 8 14 9 6 13 8 4 3 8 29 44 46 47 51 50 46 42 38 35 32 31 30 29 28 27
19 7 19 12 19 19 12 6 9 11 14 3 3 2 3 14 34 43 44 44 48 49 44 40 38 34 32 30 28 29 29 28
11 2 3 9 22 20 20 8 6 5 7 6 2 6 10 21 35 41 43 42 47 48 43 38 35 34 33 30 29 29 29 28
17 10 4 8 20 29 24 6 6 6 8 4 5 10 15 24 31 35 40 41 45 48 44 38 34 34 33 31 30 28 29 29
9 11 9 9 25 25 25 18 6 8 14 6 8 15 20 25 28 32 36 40 40 49 46 40 36 35 35 33 30 28 29 28
18 13 8 8 24 21 23 15 6 6 7 6 12 23 23 26 25 28 35 39 37 42 45 44 40 38 38 36 34 31 30 30
23 14 8 11 25 24 22 19 13 13 13 2 19 27 26 28 26 29 34 39 37 39 39 38 34 37 41 41 38 35 33 32
10 16 21 27 26 30 23 16 15 9 9 11 19 26 28 31 31 34 37 39 38 39 39 37 36 33 42 39 40 39 36 33
17 18 24 28 28 17 26 23 7 19 8 18 23 27 27 28 28 34 36 38 41 41 41 39 37 34 31 34 33 34 39 35
14 10 20 24 27 28 30 34 28 22 18 18 26 28 27 30 30 34 37 39 39 41 42 42 37 36 34 34 34 33 32 40
18 23 25 24 28 26 37 33 34 34 21 22 27 29 28 29 28 33 36 37 39 41 43 45 52 37 37 36 36 34 34 34
21 18 16 16 23 8 20 26 30 29 30 27 30 30 29 33 34 37 37 40 40 40 44 46 46 48 38 38 38 38 36 36
12 2 1 18 21 6 28 23 18 15 21 23 24 26 34 33 39 40 41 42 44 45 44 46 47 47 47 40 38 40 39 42
18 10 5 16 5 22 23 20 12 12 17 18 18 27 34 37 38 42 44 48 50 46 48 52 49 48 47 47 48 42 41 41
10 10 9 6 18 20 18 14 11 12 12 16 21 29 34 39 43 46 49 50 51 53 55 53 52 55 53 48 50 46 43 44
3 13 17 8 12 18 16 12 13 17 19 19 22 29 20 33 42 48 50 53 53 52 56 55 45 51 54 53 55 55 56 54
4 8 18 13 10 19 21 21 23 22 22 27 34 38 34 34 34 47 51 52 52 54 51 54 55 58 59 47 54 57 58 58
11 6 15 12 13 25 26 32 36 37 37 34 30 30 28 27 28 37 43 45 51 58 57 64 67 63 49 67 50 48 33 52
15 19 5 11 20 16 15 33 40 43 43 44 39 36 37 34 18 19 26 29 39 46 57 61 60 53 54 63 66 47 31 31
12 16 10 14 14 22 20 32 36 47 50 52 51 48 49 45 42 24 7 10 17 24 34 46 52 46 33 37 37 32 24 21
Wind_Direction_850mb
303 272 32 43 24 4 348 300 229 273 278 317 2 345 131 176 165 162 170 171 179 176 177 177 180 182 184 186 186 187 189 189
259 52 84 32 7 356 356 154 236 282 277 230 263 329 138 161 161 167 169 172 182 180 180 182 185 189 193 194 193 193 194 193
244 143 23 13 5 345 353 331 289 264 342 292 307 192 142 155 161 169 172 177 185 184 184 187 191 196 199 200 201 201 199 199
218 146 10 10 4 342 349 17 355 249 311 4 155 141 144 155 162 171 177 179 185 187 190 193 197 203 206 207 208 207 206 207
294 275 274 0 344 338 336 334 37 324 294 66 169 162 146 157 165 176 182 180 188 192 194 197 202 208 212 214 215 215 214 214
229 248 263 354 325 347 335 342 335 278 326 81 165 160 153 163 172 179 187 187 193 191 199 202 207 209 214 218 219 220 220 220
237 247 272 328 332 339 326 296 293 280 306 250 165 160 164 166 176 183 189 194 196 198 203 203 208 218 216 219 222 224 225 224
346 294 289 315 319 322 316 303 294 239 222 174 175 175 182 180 184 191 196 197 200 201 203 205 207 214 221 222 225 227 229 230
273 263 290 302 300 308 294 288 333 317 323 199 196 198 197 194 196 195 194 196 200 205 207 207 213 215 216 217 223 227 228 227
292 282 287 288 306 290 286 283 300 295 290 218 210 209 205 202 200 197 199 200 202 206 208 211 215 220 220 219 223 224 230 235
272 281 285 285 268 277 281 286 276 269 261 232 222 216 211 202 206 203 203 204 206 207 213 217 219 218 222 225 230 230 231 235
279 280 269 285 304 255 336 317 290 261 253 250 241 224 208 201 207 209 210 211 211 212 218 222 226 224 225 229 232 234 234 236
194 211 248 309 220 331 342 326 288 253 255 262 249 229 219 215 209 211 215 212 215 217 220 231 232 235 236 234 239 239 241 240
104 355 71 307 354 21 346 337 298 278 279 271 252 236 231 223 222 217 213 222 222 218 220 233 235 240 243 246 246 243 243 242
153 57 327 320 356 11 349 336 320 311 301 264 256 251 239 233 228 226 224 217 224 227 225 228 236 238 243 242 247 245 245 245
348 25 329 309 348 32 357 323 308 314 311 297 280 270 277 259 241 235 232 232 226 229 233 232 232 241 241 250 252 254 252 246
11 37 309 17 320 36 36 33 26 6 343 319 305 305 298 277 255 241 231 234 234 234 231 236 237 247 252 258 252 249 253 254
256 24 298 4 76 79 59 58 52 35 25 8 349 349 336 314 269 243 241 236 241 247 246 250 248 249 246 276 280 265 294 271
345 317 221 278 103 78 73 60 33 29 25 24 22 17 17 11 339 253 245 248 243 252 258 256 253 251 246 232 255 279 304 297
322 302 83 308 116 77 33 38 34 28 25 22 24 28 30 28 29 24 341 272 262 254 246 255 259 254 260 245 251 267 289 291